Tracking 21155 objects as of 15-Aug-2020
HD Live streaming from Space Station
objects crossing your sky now

FENGYUN 1C DEB

Track FENGYUN 1C DEB now!
10-day predictions


NORAD ID: 30816
Int'l Code: 1999-025AVA
Perigee: 834.4 km
Apogee: 926.3 km
Inclination: 99.1 °
Period: 102.4 minutes
Semi major axis: 7251 km
RCS: 0.037 m2 (small)
Launch date: May 10, 1999
Source: People's Republic of China (PRC)
Launch site: Taiyaun Space Center, China (TSC)

Note: This is SATELLITE DEBRIS
aabbcc
Your satellite tracking list
Your tracking list is empty




NASA's NSSDC Master Catalog

Two Line Element Set (TLE):
1 30816U 99025AVA 20228.41592545 +.00000176 +00000-0 +13219-3 0  9995
2 30816 099.0548 274.9195 0063325 121.6161 004.1937 14.05967804689808
Source of the keplerian elements: AFSPC